Location: Plainartige
(45.6866°N, 1.7993°E)
Time: 13:27:24
(UTC+00:00)

POLYITAN 1 - Pass Details

Date: 06 July 2022
Orbit: 586 x 605 km, 98.0° (Epoch: 18 August)

Event Time Altitude Azimuth Distance (km) Brightness Sun altitude
Rises 00:30:52 0° 31° (NNE) 2,866 ? -21.2°
Reaches altitude 10° 00:33:57 10° 56° (NE) 1,959 ? -21.1°
Maximum altitude 00:36:21 15° 90° (E) 1,665 ? -21.0°
Enters shadow 00:37:53 13° 114° (ESE) 1,787 ? -21.0°
